Station Historical Data
Daily Summary for July 23, 2017 Units:  English    Metric   Both
Next Day »
Daily Weekly Monthly Yearly Custom
  High: Low: Average:
Temperature: 93.0 °F 72.0 °F 79.4 °F
Dew Point: 60.5 °F 47.3 °F 53.2 °F
Humidity: 60% 23% 42%
Wind Speed: 14.0mph 0.0mph 2.6mph
Wind Gust: 19.0mph - -
Wind- - SSE
Pressure: 29.85 in 29.74 in -
Precipitation: 0.00 in    
Historical Graphs
 
 
Tabular Data for July 23, 2017
Time Temperature Dew Point Pressure Wind Wind Speed Wind Gust Humidity Rainfall Rate (Hourly) solar Conditions
00:02 74.2 °F 54.4 °F 29.85 in SE 7.0 mph 7.0 mph 50% 0.00 in 0.00 W/m2
00:07 74.2 °F 54.4 °F 29.85 in SE 7.0 mph 7.0 mph 50% 0.00 in 0.00 W/m2
00:12 74.1 °F 54.3 °F 29.85 in ESE 6.0 mph 6.0 mph 50% 0.00 in 0.00 W/m2
00:17 74.1 °F 54.3 °F 29.85 in ESE 4.0 mph 9.0 mph 50% 0.00 in 0.00 W/m2
00:22 74.0 °F 54.7 °F 29.85 in ESE 4.0 mph 12.0 mph 51% 0.00 in 0.00 W/m2
00:27 74.0 °F 54.7 °F 29.85 in ESE 11.0 mph 11.0 mph 51% 0.00 in 0.00 W/m2
00:32 74.0 °F 54.7 °F 29.85 in ESE 4.0 mph 9.0 mph 51% 0.00 in 0.00 W/m2
00:37 73.9 °F 54.7 °F 29.85 in ESE 4.0 mph 9.0 mph 51% 0.00 in 0.00 W/m2
00:42 73.9 °F 54.7 °F 29.85 in ESE 5.0 mph 12.0 mph 51% 0.00 in 0.00 W/m2
00:47 73.8 °F 54.6 °F 29.85 in ESE 5.0 mph 9.0 mph 51% 0.00 in 0.00 W/m2
00:52 73.8 °F 54.6 °F 29.85 in ESE 5.0 mph 7.0 mph 51% 0.00 in 0.00 W/m2
00:57 73.8 °F 55.1 °F 29.84 in ESE 1.0 mph 8.0 mph 52% 0.00 in 0.00 W/m2
01:02 73.8 °F 55.1 °F 29.84 in ESE 6.0 mph 8.0 mph 52% 0.00 in 0.00 W/m2
01:07 73.7 °F 55.0 °F 29.84 in ESE 9.0 mph 9.0 mph 52% 0.00 in 0.00 W/m2
01:12 73.7 °F 55.0 °F 29.84 in ESE 9.0 mph 11.0 mph 52% 0.00 in 0.00 W/m2
01:17 73.7 °F 55.0 °F 29.84 in East 6.0 mph 11.0 mph 52% 0.00 in 0.00 W/m2
01:22 73.6 °F 54.9 °F 29.84 in Calm   8.0 mph 52% 0.00 in 0.00 W/m2
01:27 73.6 °F 54.9 °F 29.84 in ESE 4.0 mph 12.0 mph 52% 0.00 in 0.00 W/m2
01:32 73.5 °F 54.8 °F 29.84 in ESE 4.0 mph 12.0 mph 52% 0.00 in 0.00 W/m2
01:37 73.5 °F 54.8 °F 29.85 in ESE 7.0 mph 13.0 mph 52% 0.00 in 0.00 W/m2
01:43 73.5 °F 54.8 °F 29.84 in East 12.0 mph 12.0 mph 52% 0.00 in 0.00 W/m2
01:48 73.4 °F 54.7 °F 29.84 in ESE 9.0 mph 12.0 mph 52% 0.00 in 0.00 W/m2
01:53 73.4 °F 55.2 °F 29.84 in East 11.0 mph 15.0 mph 53% 0.00 in 0.00 W/m2
01:58 73.3 °F 54.6 °F 29.84 in ESE 4.0 mph 19.0 mph 52% 0.00 in 0.00 W/m2
02:03 73.3 °F 54.6 °F 29.84 in ESE 7.0 mph 8.0 mph 52% 0.00 in 0.00 W/m2
02:08 73.3 °F 55.2 °F 29.84 in East 12.0 mph 13.0 mph 53% 0.00 in 0.00 W/m2
02:13 73.2 °F 55.1 °F 29.84 in ESE 7.0 mph 12.0 mph 53% 0.00 in 0.00 W/m2
02:18 73.2 °F 55.1 °F 29.83 in ESE 5.0 mph 12.0 mph 53% 0.00 in 0.00 W/m2
02:23 73.1 °F 55.0 °F 29.83 in East 11.0 mph 14.0 mph 53% 0.00 in 0.00 W/m2
02:28 73.1 °F 55.0 °F 29.83 in ESE 8.0 mph 14.0 mph 53% 0.00 in 0.00 W/m2
02:33 73.0 °F 54.9 °F 29.83 in ESE 11.0 mph 12.0 mph 53% 0.00 in 0.00 W/m2
02:38 73.0 °F 54.9 °F 29.83 in ESE 9.0 mph 11.0 mph 53% 0.00 in 0.00 W/m2
02:43 72.9 °F 54.8 °F 29.83 in ESE 5.0 mph 11.0 mph 53% 0.00 in 0.00 W/m2
02:48 72.8 °F 54.7 °F 29.83 in ESE 5.0 mph 14.0 mph 53% 0.00 in 0.00 W/m2
02:53 72.8 °F 54.2 °F 29.83 in East 13.0 mph 13.0 mph 52% 0.00 in 0.00 W/m2
02:58 72.8 °F 54.7 °F 29.82 in East 9.0 mph 13.0 mph 53% 0.00 in 0.00 W/m2
03:03 72.8 °F 54.7 °F 29.82 in Calm   14.0 mph 53% 0.00 in 0.00 W/m2
03:08 72.7 °F 54.6 °F 29.82 in ESE 4.0 mph 11.0 mph 53% 0.00 in 0.00 W/m2
03:13 72.7 °F 54.1 °F 29.82 in ESE 9.0 mph 12.0 mph 52% 0.00 in 0.00 W/m2
03:18 72.6 °F 54.5 °F 29.82 in East 8.0 mph 13.0 mph 53% 0.00 in 0.00 W/m2
03:23 72.6 °F 54.0 °F 29.82 in East 5.0 mph 14.0 mph 52% 0.00 in 0.00 W/m2
03:28 72.6 °F 54.0 °F 29.82 in East 4.0 mph 9.0 mph 52% 0.00 in 0.00 W/m2
03:33 72.6 °F 54.0 °F 29.82 in East 6.0 mph 13.0 mph 52% 0.00 in 0.00 W/m2
03:38 72.5 °F 53.9 °F 29.82 in East 8.0 mph 13.0 mph 52% 0.00 in 0.00 W/m2
03:43 72.5 °F 53.9 °F 29.82 in East 6.0 mph 12.0 mph 52% 0.00 in 0.00 W/m2
03:48 72.5 °F 53.9 °F 29.82 in East 5.0 mph 14.0 mph 52% 0.00 in 0.00 W/m2
03:53 72.4 °F 53.8 °F 29.81 in East 6.0 mph 11.0 mph 52% 0.00 in 0.00 W/m2
03:58 72.4 °F 53.8 °F 29.81 in East 5.0 mph 13.0 mph 52% 0.00 in 0.00 W/m2
04:03 72.4 °F 53.8 °F 29.81 in East 5.0 mph 14.0 mph 52% 0.00 in 0.00 W/m2
04:08 72.4 °F 53.8 °F 29.81 in East 2.0 mph 11.0 mph 52% 0.00 in 0.00 W/m2
04:13 72.4 °F 53.8 °F 29.81 in East 8.0 mph 13.0 mph 52% 0.00 in 0.00 W/m2
04:18 72.4 °F 53.3 °F 29.82 in ESE 8.0 mph 13.0 mph 51% 0.00 in 0.00 W/m2
04:23 72.4 °F 53.3 °F 29.81 in East 7.0 mph 13.0 mph 51% 0.00 in 0.00 W/m2
04:28 72.5 °F 53.4 °F 29.82 in East 7.0 mph 11.0 mph 51% 0.00 in 0.00 W/m2
04:33 72.6 °F 53.5 °F 29.81 in ESE 5.0 mph 14.0 mph 51% 0.00 in 0.00 W/m2
04:39 72.6 °F 53.5 °F 29.81 in East 5.0 mph 13.0 mph 51% 0.00 in 0.00 W/m2
04:44 72.6 °F 53.5 °F 29.82 in ESE 5.0 mph 13.0 mph 51% 0.00 in 0.00 W/m2
04:49 72.6 °F 53.5 °F 29.81 in ESE 4.0 mph 12.0 mph 51% 0.00 in 0.00 W/m2
04:54 72.6 °F 53.5 °F 29.81 in East 7.0 mph 13.0 mph 51% 0.00 in 0.00 W/m2
04:59 72.6 °F 53.5 °F 29.81 in East 14.0 mph 14.0 mph 51% 0.00 in 0.00 W/m2
05:04 72.6 °F 53.5 °F 29.81 in ESE 1.0 mph 13.0 mph 51% 0.00 in 0.00 W/m2
05:09 72.6 °F 53.5 °F 29.82 in East 8.0 mph 12.0 mph 51% 0.00 in 0.00 W/m2
05:14 72.6 °F 53.5 °F 29.81 in ESE 4.0 mph 12.0 mph 51% 0.00 in 0.00 W/m2
05:19 72.7 °F 53.5 °F 29.81 in ESE 6.0 mph 15.0 mph 51% 0.00 in 0.00 W/m2
05:24 72.7 °F 53.5 °F 29.81 in ESE 7.0 mph 15.0 mph 51% 0.00 in 0.00 W/m2
05:29 72.7 °F 53.0 °F 29.81 in ESE 4.0 mph 14.0 mph 50% 0.00 in 0.00 W/m2
05:34 72.7 °F 53.0 °F 29.82 in East 9.0 mph 13.0 mph 50% 0.00 in 0.00 W/m2
05:39 72.7 °F 53.0 °F 29.82 in ESE 6.0 mph 13.0 mph 50% 0.00 in 0.00 W/m2
05:44 72.7 °F 53.0 °F 29.82 in East 2.0 mph 13.0 mph 50% 0.00 in 0.00 W/m2
05:49 72.7 °F 53.0 °F 29.82 in ESE 4.0 mph 13.0 mph 50% 0.00 in 0.00 W/m2
05:54 72.8 °F 53.1 °F 29.82 in ESE 6.0 mph 18.0 mph 50% 0.00 in 5.00 W/m2
05:59 72.8 °F 53.1 °F 29.82 in ESE 7.0 mph 14.0 mph 50% 0.00 in 9.00 W/m2
06:04 72.8 °F 53.1 °F 29.82 in ESE 5.0 mph 14.0 mph 50% 0.00 in 11.00 W/m2
06:09 72.7 °F 53.0 °F 29.82 in East 6.0 mph 13.0 mph 50% 0.00 in 14.00 W/m2
06:14 72.7 °F 53.0 °F 29.82 in ESE 4.0 mph 12.0 mph 50% 0.00 in 19.00 W/m2
06:19 72.7 °F 53.0 °F 29.82 in East 5.0 mph 13.0 mph 50% 0.00 in 21.00 W/m2
06:24 72.7 °F 53.0 °F 29.82 in ESE 2.0 mph 13.0 mph 50% 0.00 in 26.00 W/m2
06:29 72.6 °F 52.9 °F 29.82 in ESE 9.0 mph 12.0 mph 50% 0.00 in 33.00 W/m2
06:34 72.6 °F 52.9 °F 29.82 in ESE 6.0 mph 12.0 mph 50% 0.00 in 42.00 W/m2
06:39 72.6 °F 53.5 °F 29.82 in ESE 12.0 mph 12.0 mph 51% 0.00 in 53.00 W/m2
06:44 72.6 °F 53.5 °F 29.82 in Calm   12.0 mph 51% 0.00 in 65.00 W/m2
06:49 72.5 °F 53.9 °F 29.82 in ESE 4.0 mph 11.0 mph 52% 0.00 in 76.00 W/m2
06:54 72.4 °F 53.8 °F 29.82 in ESE 5.0 mph 12.0 mph 52% 0.00 in 88.00 W/m2
06:59 72.3 °F 53.7 °F 29.82 in Calm   11.0 mph 52% 0.00 in 102.00 W/m2
07:04 72.3 °F 54.2 °F 29.82 in ESE 7.0 mph 12.0 mph 53% 0.00 in 116.00 W/m2
07:09 72.2 °F 54.7 °F 29.82 in ESE 5.0 mph 11.0 mph 54% 0.00 in 134.00 W/m2
07:14 72.2 °F 54.7 °F 29.82 in ESE 4.0 mph 13.0 mph 54% 0.00 in 155.00 W/m2
07:19 72.1 °F 54.6 °F 29.83 in ESE 5.0 mph 13.0 mph 54% 0.00 in 181.00 W/m2
07:24 72.1 °F 55.1 °F 29.82 in ESE 4.0 mph 9.0 mph 55% 0.00 in 209.00 W/m2
07:29 72.0 °F 55.0 °F 29.83 in Calm   8.0 mph 55% 0.00 in 230.00 W/m2
07:34 72.0 °F 55.0 °F 29.83 in Calm   6.0 mph 55% 0.00 in 255.00 W/m2
07:39 72.1 °F 55.6 °F 29.83 in Calm   7.0 mph 56% 0.00 in 274.00 W/m2
07:44 72.0 °F 55.5 °F 29.83 in Calm   6.0 mph 56% 0.00 in 295.00 W/m2
07:49 72.1 °F 56.0 °F 29.83 in Calm   7.0 mph 57% 0.00 in 325.00 W/m2
07:54 72.1 °F 56.0 °F 29.83 in ESE 4.0 mph 7.0 mph 57% 0.00 in 338.00 W/m2
07:59 72.2 °F 56.6 °F 29.84 in ESE 2.0 mph 6.0 mph 58% 0.00 in 366.00 W/m2
08:04 72.3 °F 56.7 °F 29.84 in ESE 2.0 mph 4.0 mph 58% 0.00 in 343.00 W/m2
08:09 72.4 °F 56.8 °F 29.84 in Calm   5.0 mph 58% 0.00 in 188.00 W/m2
08:14 72.5 °F 57.4 °F 29.84 in ESE 2.0 mph 7.0 mph 59% 0.00 in 167.00 W/m2
08:19 72.7 °F 58.0 °F 29.83 in ESE 4.0 mph 7.0 mph 60% 0.00 in 417.00 W/m2
08:25 72.9 °F 58.2 °F 29.84 in ESE 6.0 mph 9.0 mph 60% 0.00 in 459.00 W/m2
08:30 73.1 °F 58.4 °F 29.84 in Calm   11.0 mph 60% 0.00 in 471.00 W/m2
08:35 73.3 °F 58.6 °F 29.84 in Calm   6.0 mph 60% 0.00 in 510.00 W/m2
08:40 73.5 °F 58.8 °F 29.84 in Calm   7.0 mph 60% 0.00 in 540.00 W/m2
08:45 73.7 °F 58.5 °F 29.84 in ESE 1.0 mph 7.0 mph 59% 0.00 in 438.00 W/m2
08:50 73.9 °F 57.7 °F 29.84 in ESE 2.0 mph 8.0 mph 57% 0.00 in 188.00 W/m2
08:55 74.1 °F 56.9 °F 29.83 in Calm   4.0 mph 55% 0.00 in 267.00 W/m2
09:00 74.4 °F 57.7 °F 29.83 in Calm   6.0 mph 56% 0.00 in 570.00 W/m2
09:05 74.7 °F 58.5 °F 29.83 in ESE 2.0 mph 8.0 mph 57% 0.00 in 573.00 W/m2
09:10 74.9 °F 57.7 °F 29.83 in ESE 6.0 mph 8.0 mph 55% 0.00 in 580.00 W/m2
09:15 75.2 °F 57.9 °F 29.84 in ESE 8.0 mph 9.0 mph 55% 0.00 in 538.00 W/m2
09:20 75.4 °F 58.1 °F 29.83 in Calm   8.0 mph 55% 0.00 in 522.00 W/m2
09:25 75.7 °F 57.9 °F 29.83 in SE 5.0 mph 6.0 mph 54% 0.00 in 626.00 W/m2
09:30 76.1 °F 58.3 °F 29.83 in Calm   8.0 mph 54% 0.00 in 613.00 W/m2
09:35 76.5 °F 58.6 °F 29.83 in ESE 6.0 mph 8.0 mph 54% 0.00 in 503.00 W/m2
09:40 76.8 °F 58.4 °F 29.83 in Calm   8.0 mph 53% 0.00 in 643.00 W/m2
09:45 77.1 °F 58.1 °F 29.83 in SE 6.0 mph 6.0 mph 52% 0.00 in 663.00 W/m2
09:50 77.3 °F 56.7 °F 29.83 in SE 7.0 mph 8.0 mph 49% 0.00 in 650.00 W/m2
09:55 77.6 °F 56.4 °F 29.83 in Calm   11.0 mph 48% 0.00 in 473.00 W/m2
10:00 78.0 °F 57.3 °F 29.83 in SE 4.0 mph 8.0 mph 49% 0.00 in 664.00 W/m2
10:05 78.2 °F 55.1 °F 29.83 in SE 2.0 mph 9.0 mph 45% 0.00 in 513.00 W/m2
10:10 78.6 °F 55.5 °F 29.83 in Calm   7.0 mph 45% 0.00 in 793.00 W/m2
10:15 79.1 °F 55.3 °F 29.83 in Calm   4.0 mph 44% 0.00 in 823.00 W/m2
10:20 79.6 °F 55.2 °F 29.83 in SE 2.0 mph 6.0 mph 43% 0.00 in 817.00 W/m2
10:25 80.0 °F 54.9 °F 29.83 in Calm   6.0 mph 42% 0.00 in 432.00 W/m2
10:30 80.3 °F 56.4 °F 29.83 in Calm   7.0 mph 44% 0.00 in 503.00 W/m2
10:35 80.5 °F 57.2 °F 29.83 in Calm     45% 0.00 in 529.00 W/m2
10:40 80.7 °F 58.0 °F 29.83 in Calm     46% 0.00 in 622.00 W/m2
10:45 80.7 °F 58.6 °F 29.83 in Calm   4.0 mph 47% 0.00 in 192.00 W/m2
10:50 80.8 °F 59.9 °F 29.83 in Calm     49% 0.00 in 568.00 W/m2
10:55 80.8 °F 60.4 °F 29.83 in Calm   4.0 mph 50% 0.00 in 821.00 W/m2
11:00 80.9 °F 60.5 °F 29.83 in Calm   4.0 mph 50% 0.00 in 824.00 W/m2
11:02 80.9 °F 60.5 °F 29.83 in Calm   6.0 mph 50% 0.00 in 826.00 W/m2
11:07 81.1 °F 59.0 °F 29.83 in Calm   2.0 mph 47% 0.00 in 828.00 W/m2
11:12 81.4 °F 59.3 °F 29.83 in SSE 1.0 mph 5.0 mph 47% 0.00 in 842.00 W/m2
11:18 81.8 °F 57.1 °F 29.83 in SSE 5.0 mph 6.0 mph 43% 0.00 in 856.00 W/m2
11:22 82.2 °F 58.1 °F 29.83 in SSE 1.0 mph 1.0 mph 44% 0.00 in 775.00 W/m2
11:28 82.7 °F 58.6 °F 29.83 in Calm   6.0 mph 44% 0.00 in 877.00 W/m2
11:33 83.1 °F 55.6 °F 29.83 in SSE 2.0 mph 6.0 mph 39% 0.00 in 877.00 W/m2
11:38 83.6 °F 57.4 °F 29.83 in SSE 8.0 mph 8.0 mph 41% 0.00 in 877.00 W/m2
11:43 84.0 °F 52.6 °F 29.83 in Calm   4.0 mph 34% 0.00 in 881.00 W/m2
11:48 84.6 °F 54.0 °F 29.83 in Calm   4.0 mph 35% 0.00 in 884.00 W/m2
11:53 85.0 °F 54.3 °F 29.83 in SSW 2.0 mph 5.0 mph 35% 0.00 in 888.00 W/m2
11:58 85.3 °F 53.8 °F 29.83 in Calm   3.0 mph 34% 0.00 in 889.00 W/m2
12:03 85.6 °F 54.8 °F 29.83 in Calm   3.0 mph 35% 0.00 in 893.00 W/m2
12:08 85.9 °F 54.3 °F 29.83 in South 1.0 mph 4.0 mph 34% 0.00 in 898.00 W/m2
12:13 86.4 °F 56.3 °F 29.83 in Calm   8.0 mph 36% 0.00 in 904.00 W/m2
12:18 86.9 °F 55.2 °F 29.82 in Calm   8.0 mph 34% 0.00 in 912.00 W/m2
12:23 87.3 °F 55.5 °F 29.82 in Calm   7.0 mph 34% 0.00 in 914.00 W/m2
12:28 87.7 °F 55.9 °F 29.82 in SW 3.0 mph 3.0 mph 34% 0.00 in 914.00 W/m2
12:33 88.2 °F 53.8 °F 29.82 in Calm   2.0 mph 31% 0.00 in 918.00 W/m2
12:38 88.6 °F 54.1 °F 29.82 in Calm   2.0 mph 31% 0.00 in 919.00 W/m2
12:43 89.1 °F 55.4 °F 29.82 in Calm   6.0 mph 32% 0.00 in 919.00 W/m2
12:48 89.6 °F 55.0 °F 29.82 in WSW 3.0 mph 6.0 mph 31% 0.00 in 919.00 W/m2
12:53 89.5 °F 54.0 °F 29.82 in Calm   6.0 mph 30% 0.00 in 925.00 W/m2
12:58 89.5 °F 54.9 °F 29.82 in SW 1.0 mph 6.0 mph 31% 0.00 in 921.00 W/m2
13:03 89.9 °F 53.4 °F 29.82 in SSE 2.0 mph 8.0 mph 29% 0.00 in 923.00 W/m2
13:08 90.8 °F 54.2 °F 29.82 in Calm   1.0 mph 29% 0.00 in 923.00 W/m2
13:13 91.3 °F 53.7 °F 29.82 in Calm   6.0 mph 28% 0.00 in 925.00 W/m2
13:18 91.0 °F 53.4 °F 29.81 in Calm   12.0 mph 28% 0.00 in 921.00 W/m2
13:23 91.2 °F 52.6 °F 29.81 in SSW 3.0 mph 4.0 mph 27% 0.00 in 921.00 W/m2
13:28 91.7 °F 53.0 °F 29.81 in Calm   7.0 mph 27% 0.00 in 919.00 W/m2
13:33 92.0 °F 51.2 °F 29.81 in South 1.0 mph 3.0 mph 25% 0.00 in 919.00 W/m2
13:38 92.3 °F 52.5 °F 29.81 in Calm   5.0 mph 26% 0.00 in 914.00 W/m2
13:43 92.4 °F 53.6 °F 29.81 in South 2.0 mph 8.0 mph 27% 0.00 in 909.00 W/m2
13:48 92.6 °F 52.7 °F 29.81 in Calm   8.0 mph 26% 0.00 in 909.00 W/m2
13:53 93.0 °F 54.1 °F 29.80 in Calm   1.0 mph 27% 0.00 in 900.00 W/m2
13:58 92.9 °F 54.0 °F 29.80 in SSW 1.0 mph 4.0 mph 27% 0.00 in 902.00 W/m2
14:03 92.4 °F 51.5 °F 29.80 in SW 3.0 mph 8.0 mph 25% 0.00 in 895.00 W/m2
14:08 92.3 °F 51.4 °F 29.80 in Calm   3.0 mph 25% 0.00 in 891.00 W/m2
14:13 91.9 °F 51.1 °F 29.80 in Calm   1.0 mph 25% 0.00 in 884.00 W/m2
14:18 91.3 °F 52.7 °F 29.80 in WSW 2.0 mph 6.0 mph 27% 0.00 in 881.00 W/m2
14:23 90.9 °F 53.3 °F 29.80 in West 1.0 mph 4.0 mph 28% 0.00 in 877.00 W/m2
14:28 90.4 °F 50.9 °F 29.80 in WSW 3.0 mph 3.0 mph 26% 0.00 in 870.00 W/m2
14:34 90.4 °F 50.9 °F 29.80 in WSW 1.0 mph 6.0 mph 26% 0.00 in 861.00 W/m2
14:39 90.6 °F 51.0 °F 29.79 in WSW 1.0 mph 1.0 mph 26% 0.00 in 856.00 W/m2
14:44 90.8 °F 51.2 °F 29.79 in WSW 7.0 mph 9.0 mph 26% 0.00 in 849.00 W/m2
14:49 90.9 °F 51.3 °F 29.79 in WSW 3.0 mph 7.0 mph 26% 0.00 in 844.00 W/m2
14:54 91.0 °F 50.3 °F 29.79 in Calm   1.0 mph 25% 0.00 in 833.00 W/m2
14:59 90.9 °F 50.2 °F 29.79 in Calm   6.0 mph 25% 0.00 in 828.00 W/m2
15:04 91.0 °F 50.3 °F 29.79 in WSW 4.0 mph 7.0 mph 25% 0.00 in 817.00 W/m2
15:09 91.3 °F 48.3 °F 29.78 in WSW 5.0 mph 6.0 mph 23% 0.00 in 812.00 W/m2
15:14 91.5 °F 49.7 °F 29.78 in Calm   1.0 mph 24% 0.00 in 802.00 W/m2
15:19 91.4 °F 50.7 °F 29.78 in West 1.0 mph 6.0 mph 25% 0.00 in 791.00 W/m2
15:24 91.0 °F 49.2 °F 29.78 in Calm   5.0 mph 24% 0.00 in 780.00 W/m2
15:29 90.5 °F 47.7 °F 29.77 in Calm   2.0 mph 23% 0.00 in 768.00 W/m2
15:34 90.2 °F 48.6 °F 29.78 in Calm   7.0 mph 24% 0.00 in 758.00 W/m2
15:39 90.1 °F 49.6 °F 29.78 in Calm   8.0 mph 25% 0.00 in 745.00 W/m2
15:44 90.1 °F 49.6 °F 29.78 in SW 6.0 mph 9.0 mph 25% 0.00 in 737.00 W/m2
15:49 90.1 °F 49.6 °F 29.78 in WSW 1.0 mph 5.0 mph 25% 0.00 in 729.00 W/m2
15:54 90.2 °F 47.4 °F 29.77 in WSW 1.0 mph 4.0 mph 23% 0.00 in 729.00 W/m2
15:59 90.3 °F 49.7 °F 29.77 in Calm   11.0 mph 25% 0.00 in 726.00 W/m2
16:04 90.4 °F 49.8 °F 29.77 in Calm   9.0 mph 25% 0.00 in 722.00 W/m2
16:09 90.5 °F 49.9 °F 29.77 in SW 1.0 mph 8.0 mph 25% 0.00 in 698.00 W/m2
16:14 90.6 °F 50.0 °F 29.77 in Calm   8.0 mph 25% 0.00 in 677.00 W/m2
16:19 90.4 °F 50.9 °F 29.77 in Calm   4.0 mph 26% 0.00 in 663.00 W/m2
16:24 90.3 °F 50.8 °F 29.77 in West 8.0 mph 10.0 mph 26% 0.00 in 640.00 W/m2
16:29 90.0 °F 50.5 °F 29.77 in Calm   7.0 mph 26% 0.00 in 622.00 W/m2
16:34 89.8 °F 49.3 °F 29.77 in Calm   6.0 mph 25% 0.00 in 613.00 W/m2
16:39 89.6 °F 49.2 °F 29.77 in WNW 1.0 mph 5.0 mph 25% 0.00 in 598.00 W/m2
16:44 89.7 °F 50.3 °F 29.76 in West 2.0 mph 6.0 mph 26% 0.00 in 585.00 W/m2
16:49 89.5 °F 50.1 °F 29.76 in West 2.0 mph 5.0 mph 26% 0.00 in 571.00 W/m2
16:54 89.3 °F 51.0 °F 29.76 in West 4.0 mph 7.0 mph 27% 0.00 in 557.00 W/m2
16:59 89.1 °F 52.7 °F 29.76 in Calm   1.0 mph 29% 0.00 in 540.00 W/m2
17:04 89.0 °F 52.7 °F 29.76 in Calm   3.0 mph 29% 0.00 in 527.00 W/m2
17:09 88.8 °F 50.5 °F 29.76 in Calm   1.0 mph 27% 0.00 in 512.00 W/m2
17:14 88.6 °F 50.4 °F 29.76 in West 4.0 mph 5.0 mph 27% 0.00 in 497.00 W/m2
17:19 88.5 °F 50.3 °F 29.76 in Calm   3.0 mph 27% 0.00 in 483.00 W/m2
17:24 88.4 °F 52.1 °F 29.76 in Calm   2.0 mph 29% 0.00 in 468.00 W/m2
17:29 88.3 °F 51.1 °F 29.76 in Calm   4.0 mph 28% 0.00 in 454.00 W/m2
17:34 88.2 °F 52.0 °F 29.76 in West 1.0 mph 7.0 mph 29% 0.00 in 438.00 W/m2
17:39 88.0 °F 51.8 °F 29.76 in Calm   5.0 mph 29% 0.00 in 422.00 W/m2
17:44 87.9 °F 50.8 °F 29.75 in Calm   4.0 mph 28% 0.00 in 406.00 W/m2
17:49 87.8 °F 52.5 °F 29.75 in West 3.0 mph 5.0 mph 30% 0.00 in 390.00 W/m2
17:54 87.7 °F 51.5 °F 29.75 in Calm   5.0 mph 29% 0.00 in 371.00 W/m2
17:59 87.7 °F 51.5 °F 29.75 in Calm   4.0 mph 29% 0.00 in 359.00 W/m2
18:05 87.7 °F 52.5 °F 29.75 in West 2.0 mph 2.0 mph 30% 0.00 in 341.00 W/m2
18:10 87.4 °F 51.3 °F 29.75 in Calm   4.0 mph 29% 0.00 in 327.00 W/m2
18:15 87.3 °F 52.1 °F 29.75 in Calm   1.0 mph 30% 0.00 in 309.00 W/m2
18:20 87.2 °F 52.0 °F 29.75 in Calm   1.0 mph 30% 0.00 in 295.00 W/m2
18:25 87.1 °F 52.8 °F 29.75 in Calm   3.0 mph 31% 0.00 in 278.00 W/m2
18:30 86.9 °F 53.5 °F 29.75 in Calm   3.0 mph 32% 0.00 in 262.00 W/m2
18:35 86.7 °F 52.5 °F 29.74 in Calm   1.0 mph 31% 0.00 in 248.00 W/m2
18:40 86.4 °F 53.1 °F 29.74 in Calm     32% 0.00 in 230.00 W/m2
18:45 86.1 °F 53.7 °F 29.74 in Calm   1.0 mph 33% 0.00 in 216.00 W/m2
18:50 85.6 °F 54.8 °F 29.74 in Calm   1.0 mph 35% 0.00 in 202.00 W/m2
18:55 85.2 °F 54.5 °F 29.74 in Calm     35% 0.00 in 188.00 W/m2
19:00 84.9 °F 55.0 °F 29.74 in Calm   3.0 mph 36% 0.00 in 172.00 W/m2
19:05 84.6 °F 55.5 °F 29.74 in Calm   4.0 mph 37% 0.00 in 155.00 W/m2
19:10 84.2 °F 55.1 °F 29.74 in Calm   2.0 mph 37% 0.00 in 135.00 W/m2
19:15 83.7 °F 55.4 °F 29.75 in Calm   1.0 mph 38% 0.00 in 118.00 W/m2
19:20 83.3 °F 55.1 °F 29.75 in Calm     38% 0.00 in 100.00 W/m2
19:30 82.5 °F 55.1 °F 29.75 in Calm   1.0 mph 39% 0.00 in 72.00 W/m2
19:35 82.1 °F 54.7 °F 29.75 in Calm   1.0 mph 39% 0.00 in 58.00 W/m2
19:40 81.7 °F 55.0 °F 29.75 in Calm   1.0 mph 40% 0.00 in 46.00 W/m2
19:45 81.2 °F 54.6 °F 29.75 in Calm     40% 0.00 in 35.00 W/m2
19:50 80.6 °F 54.1 °F 29.75 in Calm   1.0 mph 40% 0.00 in 26.00 W/m2
19:55 80.2 °F 53.7 °F 29.75 in Calm     40% 0.00 in 21.00 W/m2
20:00 79.8 °F 53.4 °F 29.75 in Calm     40% 0.00 in 16.00 W/m2
20:05 79.4 °F 53.7 °F 29.75 in Calm     41% 0.00 in 14.00 W/m2
20:10 79.0 °F 53.3 °F 29.75 in Calm   1.0 mph 41% 0.00 in 12.00 W/m2
20:15 78.5 °F 52.9 °F 29.75 in Calm   4.0 mph 41% 0.00 in 9.00 W/m2
20:20 78.2 °F 51.9 °F 29.76 in Calm   1.0 mph 40% 0.00 in 7.00 W/m2
20:25 77.8 °F 51.6 °F 29.76 in Calm   4.0 mph 40% 0.00 in 5.00 W/m2
20:30 77.5 °F 51.3 °F 29.76 in Calm   6.0 mph 40% 0.00 in 0.00 W/m2
20:35 77.3 °F 50.4 °F 29.76 in Calm   5.0 mph 39% 0.00 in 0.00 W/m2
20:40 77.1 °F 50.3 °F 29.76 in WNW 1.0 mph 2.0 mph 39% 0.00 in 0.00 W/m2
20:45 76.9 °F 50.1 °F 29.76 in Calm   4.0 mph 39% 0.00 in 0.00 W/m2
20:50 76.7 °F 49.9 °F 29.76 in Calm   4.0 mph 39% 0.00 in 0.00 W/m2
20:55 76.6 °F 49.1 °F 29.76 in Calm   6.0 mph 38% 0.00 in 0.00 W/m2
21:00 76.4 °F 48.9 °F 29.76 in WNW 2.0 mph 5.0 mph 38% 0.00 in 0.00 W/m2
21:06 76.3 °F 48.8 °F 29.76 in WNW 2.0 mph 5.0 mph 38% 0.00 in 0.00 W/m2
21:11 76.1 °F 48.0 °F 29.76 in Calm   3.0 mph 37% 0.00 in 0.00 W/m2
21:16 76.0 °F 47.9 °F 29.76 in Calm   4.0 mph 37% 0.00 in 0.00 W/m2
21:21 75.9 °F 47.8 °F 29.77 in Calm   3.0 mph 37% 0.00 in 0.00 W/m2
21:26 75.8 °F 47.7 °F 29.77 in Calm   4.0 mph 37% 0.00 in 0.00 W/m2
21:31 75.7 °F 48.3 °F 29.77 in Calm   3.0 mph 38% 0.00 in 0.00 W/m2
21:36 75.6 °F 47.5 °F 29.77 in Calm   1.0 mph 37% 0.00 in 0.00 W/m2
21:41 75.6 °F 47.5 °F 29.77 in WNW 2.0 mph 2.0 mph 37% 0.00 in 0.00 W/m2
21:46 75.5 °F 47.4 °F 29.77 in Calm   3.0 mph 37% 0.00 in 0.00 W/m2
21:51 75.5 °F 47.4 °F 29.77 in Calm     37% 0.00 in 0.00 W/m2
21:56 75.4 °F 48.0 °F 29.78 in Calm     38% 0.00 in 0.00 W/m2
22:01 75.4 °F 47.3 °F 29.78 in Calm     37% 0.00 in 0.00 W/m2
22:06 75.4 °F 48.0 °F 29.78 in Calm     38% 0.00 in 0.00 W/m2
22:11 75.4 °F 48.0 °F 29.78 in Calm   1.0 mph 38% 0.00 in 0.00 W/m2
22:16 75.3 °F 48.0 °F 29.78 in Calm   1.0 mph 38% 0.00 in 0.00 W/m2
22:21 75.1 °F 47.8 °F 29.78 in Calm     38% 0.00 in 0.00 W/m2
22:26 74.9 °F 47.6 °F 29.78 in Calm     38% 0.00 in 0.00 W/m2
22:31 74.8 °F 47.5 °F 29.78 in Calm     38% 0.00 in 0.00 W/m2
22:36 74.7 °F 47.4 °F 29.78 in Calm     38% 0.00 in 0.00 W/m2
22:41 74.6 °F 47.3 °F 29.78 in Calm     38% 0.00 in 0.00 W/m2
22:46 74.6 °F 47.3 °F 29.78 in Calm     38% 0.00 in 0.00 W/m2
22:51 74.6 °F 48.0 °F 29.78 in Calm     39% 0.00 in 0.00 W/m2
22:56 74.6 °F 47.3 °F 29.78 in WNW 3.0 mph 3.0 mph 38% 0.00 in 0.00 W/m2
23:01 74.6 °F 48.0 °F 29.78 in Calm   2.0 mph 39% 0.00 in 0.00 W/m2
23:06 74.6 °F 48.0 °F 29.78 in WNW 1.0 mph 3.0 mph 39% 0.00 in 0.00 W/m2
23:11 74.6 °F 48.7 °F 29.78 in Calm     40% 0.00 in 0.00 W/m2
23:16 74.6 °F 48.7 °F 29.78 in WNW 2.0 mph 4.0 mph 40% 0.00 in 0.00 W/m2
23:21 74.5 °F 48.6 °F 29.78 in WNW 3.0 mph 5.0 mph 40% 0.00 in 0.00 W/m2
23:26 74.5 °F 49.3 °F 29.78 in WNW 3.0 mph 3.0 mph 41% 0.00 in 0.00 W/m2
23:31 74.5 °F 49.3 °F 29.78 in Calm   3.0 mph 41% 0.00 in 0.00 W/m2
23:36 74.4 °F 49.8 °F 29.78 in Calm   1.0 mph 42% 0.00 in 0.00 W/m2
23:41 74.4 °F 49.8 °F 29.78 in North 4.0 mph 8.0 mph 42% 0.00 in 0.00 W/m2
23:46 74.3 °F 49.8 °F 29.78 in East 4.0 mph 7.0 mph 42% 0.00 in 0.00 W/m2
23:51 74.2 °F 49.7 °F 29.78 in East 7.0 mph 7.0 mph 42% 0.00 in 0.00 W/m2
23:56 74.2 °F 50.3 °F 29.78 in ESE 6.0 mph 6.0 mph 43% 0.00 in 0.00 W/m2
Foresthill Weather
 WU-history PHP script courtesy of   Juneau County Weather.
powered by Cumulus v1.9.3 (1059)
Ambient Weather VWS v14.00
Top Contact Website Map Copyright © 2007 - 2018 Foresthillweather.com Never base important decisions on this or any weather information obtained from the Internet